Tracking 25963 objects as of 12-Aug-2022
HD Live streaming from Space Station
objects crossing your sky now

CZ-2D DEB

Track CZ-2D DEB now!
10-day predictions


NORAD ID: 45805
Int'l Code: 2020-034D
Perigee: 368.9 km
Apogee: 398.2 km
Inclination: 97.5 °
Period: 92.1 minutes
Semi major axis: 6754 km
RCS: Unknown
Launch date: May 31, 2020
Source: People's Republic of China (PRC)
Launch site: Jiuquan Satellite Launch Center, China (JSC)

Note: This is SATELLITE DEBRIS
aabbcc
Your satellite tracking list
Your tracking list is empty




NASA's NSSDC Master Catalog

Two Line Element Set (TLE):
1 45805U 20034D   22223.90950304  .00089117  00000-0  93070-3 0  9990
2 45805  97.4843  34.3485 0021725 297.8837  62.0221 15.63904743120083
Source of the keplerian elements: AFSPC